{"data":{"norad_id":68971,"epoch":"2026-09-19T22:56:54.688992Z","epoch_age_seconds":65983,"freshness":"FRESH","line1":"1 68971U 26099W   26262.95618853  .00010586  00000+0  32401-3 0  9992","line2":"2 68971  53.1615  78.1396 0001060  73.4775 286.6344 15.34398567 21825","mean_motion":15.34398567,"eccentricity":0.000106,"inclination_deg":53.1615,"raan_deg":78.1396,"arg_perigee_deg":73.4775,"mean_anomaly_deg":286.6344,"bstar":0.00032401,"rev_number":2182,"period_min":93.847845727296,"perigee_km":461.98236987148,"apogee_km":463.43262890535,"semimajor_km":6840.8444993884,"source":"CELESTRAK","updated_at":"2026-09-20T09:00:44.055784Z"}}